Time,TemperatureF,DewpointF,PressureIn,WindDirection,WindDirectionDegrees,WindSpeedMPH,WindSpeedGustMPH,Humidity,HourlyPrecipIn,Conditions,Clouds,dailyrainin,SoftwareType,DateUTC
2013-03-07 00:01:00,9.0,6.0,30.26,WNW,300,0.0,-999.0,89,-99.99,,,-99.99,,2013-03-07 06:01:00,
2013-03-07 00:11:00,9.0,6.0,30.26,WNW,300,0.0,-999.0,89,-99.99,,,-99.99,,2013-03-07 06:11:00,
2013-03-07 00:21:00,9.0,6.0,30.26,WNW,300,0.0,-999.0,89,-99.99,,,-99.99,,2013-03-07 06:21:00,
2013-03-07 00:32:00,9.0,6.0,30.26,WNW,300,0.0,-999.0,89,-99.99,,,-99.99,,2013-03-07 06:32:00,
2013-03-07 00:42:00,8.0,5.0,30.27,WNW,300,0.0,-999.0,89,-99.99,,,-99.99,,2013-03-07 06:42:00,
2013-03-07 00:52:00,8.0,5.0,30.27,WNW,300,0.0,-999.0,89,-99.99,,,-99.99,,2013-03-07 06:52:00,
2013-03-07 01:01:00,8.0,5.0,30.26,WNW,300,0.0,-999.0,89,-99.99,,,-99.99,,2013-03-07 07:01:00,
2013-03-07 01:11:00,8.0,5.0,30.26,WNW,300,0.0,-999.0,89,-99.99,,,-99.99,,2013-03-07 07:11:00,
2013-03-07 01:21:00,7.0,4.0,30.26,WNW,300,0.0,-999.0,88,-99.99,,,-99.99,,2013-03-07 07:21:00,
2013-03-07 01:32:00,7.0,4.0,30.26,WNW,300,0.0,-999.0,88,-99.99,,,-99.99,,2013-03-07 07:32:00,
2013-03-07 01:42:00,7.0,4.0,30.26,WNW,300,0.0,-999.0,88,-99.99,,,-99.99,,2013-03-07 07:42:00,
2013-03-07 01:53:00,7.0,4.0,30.26,WNW,300,0.0,-999.0,88,-99.99,,,-99.99,,2013-03-07 07:53:00,
2013-03-07 02:02:00,6.0,3.0,30.26,WNW,300,0.0,-999.0,88,-99.99,,,-99.99,,2013-03-07 08:02:00,
2013-03-07 02:12:00,6.0,3.0,30.26,WNW,300,0.0,-999.0,88,-99.99,,,-99.99,,2013-03-07 08:12:00,
2013-03-07 02:22:00,6.0,3.0,30.27,WNW,300,0.0,-999.0,88,-99.99,,,-99.99,,2013-03-07 08:22:00,
2013-03-07 02:33:00,7.0,4.0,30.26,WNW,300,0.0,-999.0,89,-99.99,,,-99.99,,2013-03-07 08:33:00,
2013-03-07 02:43:00,7.0,4.0,30.26,WNW,300,0.0,-999.0,89,-99.99,,,-99.99,,2013-03-07 08:43:00,
2013-03-07 02:54:00,7.0,4.0,30.26,WNW,300,0.0,-999.0,88,-99.99,,,-99.99,,2013-03-07 08:54:00,
2013-03-07 03:03:00,7.0,4.0,30.26,WNW,300,0.0,-999.0,88,-99.99,,,-99.99,,2013-03-07 09:03:00,
2013-03-07 03:13:00,7.0,4.0,30.26,WNW,300,0.0,-999.0,88,-99.99,,,-99.99,,2013-03-07 09:13:00,
2013-03-07 03:23:00,7.0,4.0,30.26,WNW,300,0.0,-999.0,88,-99.99,,,-99.99,,2013-03-07 09:23:00,
2013-03-07 03:32:00,7.0,4.0,30.26,WNW,300,0.0,-999.0,88,-99.99,,,-99.99,,2013-03-07 09:32:00,
2013-03-07 03:42:00,7.0,4.0,30.26,WNW,300,0.0,-999.0,88,-99.99,,,-99.99,,2013-03-07 09:42:00,
2013-03-07 03:53:00,7.0,4.0,30.26,WNW,300,0.0,-999.0,88,-99.99,,,-99.99,,2013-03-07 09:53:00,
2013-03-07 04:02:00,7.0,4.0,30.26,WNW,300,0.0,-999.0,88,-99.99,,,-99.99,,2013-03-07 10:02:00,
2013-03-07 04:12:00,7.0,4.0,30.26,WNW,300,0.0,-999.0,88,-99.99,,,-99.99,,2013-03-07 10:12:00,
2013-03-07 04:23:00,7.0,4.0,30.26,WNW,300,0.0,-999.0,88,-99.99,,,-99.99,,2013-03-07 10:23:00,
2013-03-07 04:33:00,6.0,3.0,30.26,WNW,300,0.0,-999.0,88,-99.99,,,-99.99,,2013-03-07 10:33:00,
2013-03-07 04:42:00,6.0,3.0,30.26,WNW,300,0.0,-999.0,88,-99.99,,,-99.99,,2013-03-07 10:42:00,
2013-03-07 04:53:00,7.0,4.0,30.26,WNW,300,0.0,-999.0,88,-99.99,,,-99.99,,2013-03-07 10:53:00,
2013-03-07 05:02:00,7.0,4.0,30.26,WNW,300,0.0,-999.0,88,-99.99,,,-99.99,,2013-03-07 11:02:00,
2013-03-07 05:12:00,7.0,4.0,30.26,WNW,300,0.0,-999.0,88,-99.99,,,-99.99,,2013-03-07 11:12:00,
2013-03-07 05:23:00,6.0,3.0,30.26,WNW,300,0.0,-999.0,88,-99.99,,,-99.99,,2013-03-07 11:23:00,
2013-03-07 05:33:00,6.0,3.0,30.26,WNW,300,0.0,-999.0,88,-99.99,,,-99.99,,2013-03-07 11:33:00,
2013-03-07 05:42:00,6.0,3.0,30.26,WNW,300,0.0,-999.0,88,-99.99,,,-99.99,,2013-03-07 11:42:00,
2013-03-07 05:54:00,6.0,3.0,30.24,WNW,300,0.0,-999.0,88,-99.99,,,-99.99,,2013-03-07 11:54:00,
2013-03-07 06:02:00,6.0,3.0,30.24,WNW,300,0.0,-999.0,88,-99.99,,,-99.99,,2013-03-07 12:02:00,
2013-03-07 06:12:00,6.0,3.0,30.24,WNW,300,0.0,-999.0,88,-99.99,,,-99.99,,2013-03-07 12:12:00,
2013-03-07 06:22:00,7.0,4.0,30.24,WNW,300,0.0,-999.0,89,-99.99,,,-99.99,,2013-03-07 12:22:00,
2013-03-07 06:33:00,6.0,3.0,30.27,WNW,300,0.0,-999.0,89,-99.99,,,-99.99,,2013-03-07 12:33:00,
2013-03-07 06:42:00,6.0,3.0,30.27,WNW,300,0.0,-999.0,89,-99.99,,,-99.99,,2013-03-07 12:42:00,
2013-03-07 06:53:00,7.0,4.0,30.24,WNW,300,0.0,-999.0,89,-99.99,,,-99.99,,2013-03-07 12:53:00,
2013-03-07 07:02:00,6.0,3.0,30.25,WNW,300,0.0,-999.0,88,-99.99,,,-99.99,,2013-03-07 13:02:00,
2013-03-07 07:12:00,6.0,3.0,30.25,WNW,300,0.0,-999.0,88,-99.99,,,-99.99,,2013-03-07 13:12:00,
2013-03-07 07:22:00,6.0,3.0,30.26,WNW,300,0.0,-999.0,89,-99.99,,,-99.99,,2013-03-07 13:22:00,
2013-03-07 07:32:00,6.0,3.0,30.26,WNW,300,0.0,-999.0,89,-99.99,,,-99.99,,2013-03-07 13:32:00,
2013-03-07 07:42:00,6.0,3.0,30.26,WNW,300,0.0,-999.0,89,-99.99,,,-99.99,,2013-03-07 13:42:00,
2013-03-07 07:53:00,8.0,5.0,30.24,WNW,300,0.0,-999.0,89,-99.99,,,-99.99,,2013-03-07 13:53:00,
2013-03-07 08:02:00,9.0,7.0,30.24,WNW,300,0.0,-999.0,90,-99.99,,,-99.99,,2013-03-07 14:02:00,
2013-03-07 08:12:00,9.0,7.0,30.24,WNW,300,0.0,-999.0,90,-99.99,,,-99.99,,2013-03-07 14:12:00,
2013-03-07 08:22:00,12.0,10.0,30.23,NE,46,0.0,-999.0,90,-99.99,,,-99.99,,2013-03-07 14:22:00,
2013-03-07 08:42:00,14.0,12.0,30.23,NE,46,0.0,-999.0,90,-99.99,,,-99.99,,2013-03-07 14:42:00,
2013-03-07 08:54:00,16.0,14.0,30.27,NE,46,0.0,-999.0,91,-99.99,,,-99.99,,2013-03-07 14:54:00,
2013-03-07 09:02:00,17.0,15.0,30.28,South,178,0.0,-999.0,91,-99.99,,,-99.99,,2013-03-07 15:02:00,
2013-03-07 09:12:00,17.0,15.0,30.28,South,178,0.0,-999.0,91,-99.99,,,-99.99,,2013-03-07 15:12:00,
2013-03-07 09:22:00,19.0,17.0,30.28,South,176,1.0,-999.0,91,-99.99,,,-99.99,,2013-03-07 15:22:00,
2013-03-07 09:32:00,20.0,17.0,30.28,WSW,245,1.0,-999.0,89,-99.99,,,-99.99,,2013-03-07 15:32:00,
2013-03-07 09:42:00,20.0,17.0,30.28,WSW,245,1.0,-999.0,89,-99.99,,,-99.99,,2013-03-07 15:42:00,
2013-03-07 09:53:00,22.0,18.0,30.27,South,185,0.0,-999.0,86,-99.99,,,-99.99,,2013-03-07 15:53:00,
2013-03-07 10:02:00,24.0,19.0,30.27,SSE,148,1.0,-999.0,80,-99.99,,,-99.99,,2013-03-07 16:02:00,
2013-03-07 10:12:00,24.0,19.0,30.27,SSE,148,1.0,-999.0,80,-99.99,,,-99.99,,2013-03-07 16:12:00,
2013-03-07 10:23:00,26.0,18.0,30.27,SE,145,1.0,-999.0,72,-99.99,,,-99.99,,2013-03-07 16:23:00,
2013-03-07 10:42:00,27.0,19.0,30.27,SE,138,2.0,-999.0,70,-99.99,,,-99.99,,2013-03-07 16:42:00,
2013-03-07 10:53:00,28.0,19.0,30.27,SSW,199,1.0,-999.0,68,-99.99,,,-99.99,,2013-03-07 16:53:00,
2013-03-07 11:02:00,28.0,19.0,30.27,SE,129,1.0,-999.0,68,-99.99,,,-99.99,,2013-03-07 17:02:00,
2013-03-07 11:12:00,28.0,19.0,30.27,SE,129,1.0,-999.0,68,-99.99,,,-99.99,,2013-03-07 17:12:00,
2013-03-07 11:22:00,29.0,18.0,30.27,WSW,250,2.0,-999.0,64,-99.99,,,-99.99,,2013-03-07 17:22:00,
2013-03-07 11:32:00,29.0,19.0,30.27,East,100,2.0,-999.0,65,-99.99,,,-99.99,,2013-03-07 17:32:00,
2013-03-07 11:43:00,29.0,19.0,30.27,East,100,2.0,-999.0,65,-99.99,,,-99.99,,2013-03-07 17:43:00,
2013-03-07 11:54:00,29.0,19.0,30.25,South,188,1.0,-999.0,65,-99.99,,,-99.99,,2013-03-07 17:54:00,
2013-03-07 12:03:00,30.0,19.0,30.26,SE,126,1.0,-999.0,64,-99.99,,,-99.99,,2013-03-07 18:03:00,
2013-03-07 12:12:00,30.0,19.0,30.26,SE,126,1.0,-999.0,64,-99.99,,,-99.99,,2013-03-07 18:12:00,
2013-03-07 12:22:00,31.0,21.0,30.25,SW,222,1.0,-999.0,65,-99.99,,,-99.99,,2013-03-07 18:22:00,
2013-03-07 12:32:00,30.0,19.0,30.25,SE,129,1.0,-999.0,63,-99.99,,,-99.99,,2013-03-07 18:32:00,
2013-03-07 12:42:00,30.0,19.0,30.25,SE,129,1.0,-999.0,63,-99.99,,,-99.99,,2013-03-07 18:42:00,
2013-03-07 12:52:00,31.0,20.0,30.26,South,187,1.0,-999.0,63,-99.99,,,-99.99,,2013-03-07 18:52:00,
2013-03-07 13:02:00,31.0,20.0,30.25,SSE,160,1.0,-999.0,62,-99.99,,,-99.99,,2013-03-07 19:02:00,
2013-03-07 13:12:00,32.0,20.0,30.25,SW,234,1.0,-999.0,62,-99.99,,,-99.99,,2013-03-07 19:12:00,
2013-03-07 13:23:00,32.0,20.0,30.25,SW,234,1.0,-999.0,62,-99.99,,,-99.99,,2013-03-07 19:23:00,
2013-03-07 13:34:00,32.0,20.0,30.24,SSE,161,2.0,-999.0,62,-99.99,,,-99.99,,2013-03-07 19:34:00,
2013-03-07 13:43:00,32.0,20.0,30.24,SSE,161,2.0,-999.0,62,-99.99,,,-99.99,,2013-03-07 19:43:00,
2013-03-07 13:53:00,31.0,19.0,30.23,SSW,200,2.0,-999.0,61,-99.99,,,-99.99,,2013-03-07 19:53:00,
2013-03-07 14:13:00,31.0,20.0,30.23,WSW,244,2.0,-999.0,62,-99.99,,,-99.99,,2013-03-07 20:13:00,
2013-03-07 14:22:00,31.0,19.0,30.22,SSE,167,2.0,-999.0,60,-99.99,,,-99.99,,2013-03-07 20:22:00,
2013-03-07 14:42:00,31.0,19.0,30.22,SSE,159,2.0,-999.0,61,-99.99,,,-99.99,,2013-03-07 20:42:00,
2013-03-07 14:54:00,32.0,20.0,30.22,ENE,63,1.0,-999.0,61,-99.99,,,-99.99,,2013-03-07 20:54:00,
2013-03-07 15:02:00,31.0,20.0,30.22,WSW,238,2.0,-999.0,62,-99.99,,,-99.99,,2013-03-07 21:02:00,
2013-03-07 15:12:00,31.0,20.0,30.22,WSW,238,2.0,-999.0,62,-99.99,,,-99.99,,2013-03-07 21:12:00,
2013-03-07 15:22:00,32.0,20.0,30.22,SE,131,2.0,-999.0,61,-99.99,,,-99.99,,2013-03-07 21:22:00,
2013-03-07 15:32:00,32.0,20.0,30.21,ESE,112,1.0,-999.0,62,-99.99,,,-99.99,,2013-03-07 21:32:00,
2013-03-07 15:42:00,32.0,20.0,30.21,ESE,112,1.0,-999.0,62,-99.99,,,-99.99,,2013-03-07 21:42:00,
2013-03-07 15:53:00,32.0,20.0,30.20,SSE,161,1.0,-999.0,60,-99.99,,,-99.99,,2013-03-07 21:53:00,
2013-03-07 16:01:00,31.0,19.0,30.21,SE,138,1.0,-999.0,60,-99.99,,,-99.99,,2013-03-07 22:01:00,
2013-03-07 16:12:00,31.0,19.0,30.21,SE,138,1.0,-999.0,60,-99.99,,,-99.99,,2013-03-07 22:12:00,
2013-03-07 16:22:00,31.0,20.0,30.21,SSE,164,2.0,-999.0,62,-99.99,,,-99.99,,2013-03-07 22:22:00,
2013-03-07 16:32:00,31.0,20.0,30.21,South,171,1.0,-999.0,62,-99.99,,,-99.99,,2013-03-07 22:32:00,
2013-03-07 16:42:00,31.0,20.0,30.21,South,171,1.0,-999.0,62,-99.99,,,-99.99,,2013-03-07 22:42:00,
2013-03-07 16:54:00,31.0,20.0,30.20,WSW,237,2.0,-999.0,63,-99.99,,,-99.99,,2013-03-07 22:54:00,
2013-03-07 17:02:00,30.0,19.0,30.21,SE,135,1.0,-999.0,64,-99.99,,,-99.99,,2013-03-07 23:02:00,
2013-03-07 17:12:00,30.0,19.0,30.21,SE,135,1.0,-999.0,64,-99.99,,,-99.99,,2013-03-07 23:12:00,
2013-03-07 17:22:00,30.0,20.0,30.21,SE,140,1.0,-999.0,65,-99.99,,,-99.99,,2013-03-07 23:22:00,
2013-03-07 17:33:00,29.0,19.0,30.20,SE,128,2.0,-999.0,65,-99.99,,,-99.99,,2013-03-07 23:33:00,
2013-03-07 17:43:00,29.0,19.0,30.20,SE,128,2.0,-999.0,65,-99.99,,,-99.99,,2013-03-07 23:43:00,
2013-03-07 17:54:00,29.0,19.0,30.20,SSE,158,1.0,-999.0,66,-99.99,,,-99.99,,2013-03-07 23:54:00,
2013-03-07 18:03:00,29.0,19.0,30.20,South,190,1.0,-999.0,67,-99.99,,,-99.99,,2013-03-08 00:03:00,
2013-03-07 18:12:00,29.0,19.0,30.20,South,190,1.0,-999.0,67,-99.99,,,-99.99,,2013-03-08 00:12:00,
2013-03-07 18:23:00,28.0,19.0,30.20,SSE,157,0.0,-999.0,69,-99.99,,,-99.99,,2013-03-08 00:23:00,
2013-03-07 18:33:00,28.0,19.0,30.19,South,175,1.0,-999.0,69,-99.99,,,-99.99,,2013-03-08 00:33:00,
2013-03-07 18:53:00,27.0,18.0,30.19,SSE,157,1.0,-999.0,69,-99.99,,,-99.99,,2013-03-08 00:53:00,
2013-03-07 19:02:00,27.0,19.0,30.19,SE,137,1.0,-999.0,70,-99.99,,,-99.99,,2013-03-08 01:02:00,
2013-03-07 19:11:00,27.0,19.0,30.19,SE,137,1.0,-999.0,70,-99.99,,,-99.99,,2013-03-08 01:11:00,
2013-03-07 19:21:00,27.0,19.0,30.19,SSE,154,0.0,-999.0,71,-99.99,,,-99.99,,2013-03-08 01:21:00,
2013-03-07 19:32:00,27.0,19.0,30.19,SSE,153,1.0,-999.0,71,-99.99,,,-99.99,,2013-03-08 01:32:00,
2013-03-07 19:42:00,27.0,19.0,30.19,SSE,153,1.0,-999.0,71,-99.99,,,-99.99,,2013-03-08 01:42:00,
2013-03-07 19:52:00,26.0,18.0,30.19,South,169,0.0,-999.0,71,-99.99,,,-99.99,,2013-03-08 01:52:00,
2013-03-07 20:01:00,26.0,18.0,30.18,SSE,164,1.0,-999.0,71,-99.99,,,-99.99,,2013-03-08 02:01:00,
2013-03-07 20:11:00,26.0,18.0,30.17,SE,143,1.0,-999.0,72,-99.99,,,-99.99,,2013-03-08 02:11:00,
2013-03-07 20:21:00,26.0,18.0,30.17,SE,143,1.0,-999.0,72,-99.99,,,-99.99,,2013-03-08 02:21:00,
2013-03-07 20:32:00,26.0,18.0,30.17,SE,138,1.0,-999.0,71,-99.99,,,-99.99,,2013-03-08 02:32:00,
2013-03-07 20:42:00,26.0,18.0,30.17,SE,138,1.0,-999.0,71,-99.99,,,-99.99,,2013-03-08 02:42:00,
2013-03-07 20:53:00,26.0,18.0,30.17,SSE,155,1.0,-999.0,72,-99.99,,,-99.99,,2013-03-08 02:53:00,
2013-03-07 21:02:00,26.0,18.0,30.16,SSE,160,0.0,-999.0,72,-99.99,,,-99.99,,2013-03-08 03:02:00,
2013-03-07 21:12:00,26.0,18.0,30.16,SSE,160,0.0,-999.0,72,-99.99,,,-99.99,,2013-03-08 03:12:00,
2013-03-07 21:22:00,25.0,18.0,30.16,SSE,161,0.0,-999.0,73,-99.99,,,-99.99,,2013-03-08 03:22:00,
2013-03-07 21:32:00,25.0,18.0,30.16,SSE,164,0.0,-999.0,73,-99.99,,,-99.99,,2013-03-08 03:32:00,
2013-03-07 21:42:00,25.0,18.0,30.16,SSE,164,0.0,-999.0,73,-99.99,,,-99.99,,2013-03-08 03:42:00,
2013-03-07 21:52:00,25.0,18.0,30.19,South,189,0.0,-999.0,74,-99.99,,,-99.99,,2013-03-08 03:52:00,
2013-03-07 22:01:00,24.0,17.0,30.19,South,189,0.0,-999.0,74,-99.99,,,-99.99,,2013-03-08 04:01:00,
2013-03-07 22:11:00,24.0,17.0,30.19,South,189,0.0,-999.0,74,-99.99,,,-99.99,,2013-03-08 04:11:00,
2013-03-07 22:21:00,24.0,17.0,30.16,SSE,167,0.0,-999.0,75,-99.99,,,-99.99,,2013-03-08 04:21:00,
2013-03-07 22:32:00,24.0,18.0,30.17,SSE,167,0.0,-999.0,76,-99.99,,,-99.99,,2013-03-08 04:32:00,
2013-03-07 22:42:00,24.0,18.0,30.17,SSE,167,0.0,-999.0,76,-99.99,,,-99.99,,2013-03-08 04:42:00,
2013-03-07 22:52:00,23.0,17.0,30.20,SSW,205,0.0,-999.0,76,-99.99,,,-99.99,,2013-03-08 04:52:00,
2013-03-07 23:02:00,24.0,18.0,30.21,SSE,150,0.0,-999.0,77,-99.99,,,-99.99,,2013-03-08 05:02:00,
2013-03-07 23:12:00,24.0,18.0,30.21,SSE,150,0.0,-999.0,77,-99.99,,,-99.99,,2013-03-08 05:12:00,
2013-03-07 23:22:00,24.0,18.0,30.21,South,186,0.0,-999.0,76,-99.99,,,-99.99,,2013-03-08 05:22:00,
2013-03-07 23:32:00,24.0,17.0,30.21,South,180,1.0,-999.0,75,-99.99,,,-99.99,,2013-03-08 05:32:00,
2013-03-07 23:42:00,24.0,17.0,30.21,South,180,1.0,-999.0,75,-99.99,,,-99.99,,2013-03-08 05:42:00,
2013-03-07 23:52:00,25.0,19.0,30.21,South,178,1.0,-999.0,76,-99.99,,,-99.99,,2013-03-08 05:52:00,